FW3232 Weather Reports


Display with metric or nautical units.
time (UTC)temp
F
wind
direction
speed
MPH
gust
MPH
rain 1hr
in
rain 24hr
in
rain mn
in
humidity
%
barometer
mb
20260510045411 58 13 0.0 1.0 0.00 0.00 0.00 78 1013.6
20260510044914 59 357 0.0 1.0 0.00 0.00 0.00 80 1013.6
20260510044411 59 0 0.0 2.0 0.00 0.00 0.00 78 1013.5
20260510043911 59 0 0.0 2.0 0.00 0.00 0.00 78 1013.5
20260510043411 59 322 0.0 2.0 0.00 0.00 0.00 77 1013.4
20260510042911 59 349 2.0 2.0 0.00 0.00 0.00 77 1013.4
20260510042411 59 182 0.0 2.0 0.00 0.00 0.00 78 1013.4
20260510041911 59 0 0.0 0.0 0.00 0.00 0.00 78 1013.4
20260510041412 59 0 0.0 2.0 0.00 0.00 0.00 77 1013.4
20260510040911 59 347 2.0 3.0 0.00 0.00 0.00 76 1013.5
20260510040411 60 14 0.0 2.0 0.00 0.00 0.00 76 1013.4
20260510035911 60 341 1.0 2.0 0.00 0.00 0.00 76 1013.2
20260510035411 60 349 2.0 2.0 0.00 0.00 0.00 77 1013.2
20260510034912 60 356 2.0 2.0 0.00 0.00 0.00 76 1013.1
20260510034411 60 335 2.0 2.0 0.00 0.00 0.00 77 1013.0
20260510033911 60 348 2.0 2.0 0.00 0.00 0.00 76 1013.0
20260510033411 60 347 1.0 2.0 0.00 0.00 0.00 76 1012.9
20260510032912 60 350 2.0 2.0 0.00 0.00 0.00 75 1012.9
20260510032411 61 356 0.0 2.0 0.00 0.00 0.00 75 1012.7
20260510031911 61 0 0.0 1.0 0.00 0.00 0.00 75 1012.7
20260510031411 61 0 0.0 1.0 0.00 0.00 0.00 74 1012.8
20260510030911 61 333 0.0 2.0 0.00 0.00 0.00 74 1012.7
20260510030412 62 343 1.0 2.0 0.00 0.00 0.00 74 1012.7
20260510025911 62 331 0.0 2.0 0.00 0.00 0.00 73 1012.7
20260510025411 62 348 1.0 2.0 0.00 0.00 0.00 73 1012.6
20260510024912 63 1 0.0 3.0 0.00 0.00 0.00 74 1012.4
20260510024411 63 345 2.0 2.0 0.00 0.00 0.00 74 1012.2
20260510023911 63 3 1.0 3.0 0.00 0.00 0.00 71 1012.1
20260510023411 63 318 2.0 2.0 0.00 0.00 0.00 71 1012.0
20260510022911 62 321 0.0 1.0 0.00 0.00 0.00 73 1011.9
20260510022411 62 0 0.0 2.0 0.00 0.00 0.00 71 1011.8
20260510021911 62 339 2.0 2.0 0.00 0.00 0.00 74 1011.6
20260510021411 62 345 2.0 2.0 0.00 0.00 0.00 72 1011.6
20260510020911 63 347 1.0 2.0 0.00 0.00 0.00 73 1011.5
20260510020412 63 350 2.0 2.0 0.00 0.00 0.00 73 1011.3
20260510015912 63 345 1.0 2.0 0.00 0.00 0.00 72 1011.3
20260510015411 63 348 2.0 2.0 0.00 0.00 0.00 73 1011.2
20260510014911 64 358 1.0 3.0 0.00 0.00 0.00 72 1011.2
20260510014411 64 342 1.0 3.0 0.00 0.00 0.00 72 1011.2
20260510013911 64 355 2.0 3.0 0.00 0.00 0.00 71 1011.1
20260510013411 64 349 2.0 2.0 0.00 0.00 0.00 71 1011.0
20260510012912 65 352 2.0 2.0 0.00 0.00 0.00 71 1010.9
20260510012411 65 344 2.0 2.0 0.00 0.00 0.00 72 1010.8
20260510011911 66 345 1.0 2.0 0.00 0.00 0.00 71 1010.7
20260510011411 66 339 1.0 2.0 0.00 0.00 0.00 71 1010.7
20260510010911 67 348 1.0 2.0 0.00 0.00 0.00 70 1010.7
20260510010411 67 344 2.0 3.0 0.00 0.00 0.00 70 1010.6
20260510005911 68 345 2.0 3.0 0.00 0.00 0.00 68 1010.6
20260510005412 69 0 0.0 1.0 0.00 0.00 0.00 66 1010.6
20260510004912 70 4 0.0 2.0 0.00 0.00 0.00 65 1010.5
20260510004411 71 334 1.0 2.0 0.00 0.00 0.00 62 1010.5
20260510003912 72 349 2.0 3.0 0.00 0.00 0.00 60 1010.4
20260510003411 73 358 2.0 3.0 0.00 0.00 0.00 58 1010.5
20260510002911 74 353 2.0 2.0 0.00 0.00 0.00 55 1010.4
20260510002412 76 343 2.0 2.0 0.00 0.00 0.00 55 1010.4
20260510001912 76 353 0.0 2.0 0.00 0.00 0.00 55 1010.3
20260510001411 78 350 1.0 2.0 0.00 0.00 0.00 53 1010.3
20260510000912 78 327 1.0 2.0 0.00 0.00 0.00 54 1010.3
20260510000411 78 330 1.0 2.0 0.00 0.00 0.00 53 1010.3
20260509235912 79 338 2.0 2.0 0.00 0.00 0.00 51 1010.3
20260509235411 79 327 1.0 2.0 0.00 0.00 0.00 52 1010.3
20260509234911 80 316 2.0 3.0 0.00 0.00 0.00 49 1010.4
20260509234411 82 316 1.0 3.0 0.00 0.00 0.00 46 1010.4
20260509233912 83 324 0.0 3.0 0.00 0.00 0.00 44 1010.2
20260509233411 82 296 1.0 2.0 0.00 0.00 0.00 43 1010.2
20260509232911 82 332 1.0 6.0 0.00 0.00 0.00 45 1010.2
20260509232411 83 231 0.0 2.0 0.00 0.00 0.00 41 1010.3
20260509231911 82 342 0.0 3.0 0.00 0.00 0.00 41 1010.3
20260509231411 81 334 0.0 3.0 0.00 0.00 0.00 41 1010.4
20260509230911 82 342 2.0 3.0 0.00 0.00 0.00 40 1010.4
20260509230411 82 241 0.0 2.0 0.00 0.00 0.00 40 1010.4
20260509225911 83 334 0.0 5.0 0.00 0.00 0.00 38 1010.4
20260509225411 85 296 2.0 8.0 0.00 0.00 0.00 35 1010.3
20260509224911 86 344 2.0 8.0 0.00 0.00 0.00 33 1010.2
20260509224411 86 356 2.0 6.0 0.00 0.00 0.00 31 1010.2
20260509223911 86 290 1.0 5.0 0.00 0.00 0.00 32 1010.2
20260509223411 85 152 0.0 5.0 0.00 0.00 0.00 34 1010.2
20260509222912 85 324 3.0 7.0 0.00 0.00 0.00 35 1010.1
20260509222411 85 46 1.0 7.0 0.00 0.00 0.00 33 1010.2
20260509221912 85 14 3.0 7.0 0.00 0.00 0.00 33 1010.1
20260509221411 86 59 3.0 6.0 0.00 0.00 0.00 34 1010.1
20260509220911 86 78 1.0 8.0 0.00 0.00 0.00 32 1010.2
20260509220411 87 50 3.0 6.0 0.00 0.00 0.00 31 1010.1
20260509215911 87 318 2.0 7.0 0.00 0.00 0.00 31 1010.1
20260509215411 86 136 1.0 4.0 0.00 0.00 0.00 32 1010.2
20260509214912 87 52 2.0 4.0 0.00 0.00 0.00 32 1010.2
20260509214412 87 46 0.0 4.0 0.00 0.00 0.00 31 1010.3
20260509213912 87 29 1.0 6.0 0.00 0.00 0.00 31 1010.3
20260509213411 88 213 1.0 6.0 0.00 0.00 0.00 29 1010.3
20260509212911 87 51 1.0 6.0 0.00 0.00 0.00 30 1010.4
20260509212411 86 140 4.0 5.0 0.00 0.00 0.00 31 1010.4
20260509211911 87 135 2.0 5.0 0.00 0.00 0.00 30 1010.4
20260509211413 87 54 3.0 8.0 0.00 0.00 0.00 30 1010.5
20260509210911 88 101 3.0 7.0 0.00 0.00 0.00 30 1010.5
20260509210411 87 242 1.0 4.0 0.00 0.00 0.00 30 1010.5
20260509205911 86 14 1.0 5.0 0.00 0.00 0.00 31 1010.5
20260509205411 86 71 2.0 6.0 0.00 0.00 0.00 30 1010.5
20260509204912 87 101 3.0 9.0 0.00 0.00 0.00 31 1010.6
20260509204411 88 7 2.0 7.0 0.00 0.00 0.00 30 1010.5
20260509203911 88 13 4.0 7.0 0.00 0.00 0.00 31 1010.5
20260509203411 88 344 3.0 8.0 0.00 0.00 0.00 31 1010.5
20260509202911 87 350 3.0 7.0 0.00 0.00 0.00 31 1010.6
20260509202411 87 59 2.0 7.0 0.00 0.00 0.00 32 1010.7
20260509201911 87 144 2.0 3.0 0.00 0.00 0.00 31 1010.7
20260509201412 87 60 2.0 5.0 0.00 0.00 0.00 31 1010.8
20260509200911 88 132 1.0 6.0 0.00 0.00 0.00 30 1010.8
20260509200411 87 55 2.0 6.0 0.00 0.00 0.00 30 1010.8
20260509194411 84 104 2.0 5.0 0.00 0.00 0.00 32 1011.1
20260509193911 84 147 3.0 6.0 0.00 0.00 0.00 37 1011.1
20260509193411 84 150 3.0 5.0 0.00 0.00 0.00 33 1011.1
20260509192912 83 324 3.0 5.0 0.00 0.00 0.00 34 1011.1
20260509192411 81 296 1.0 4.0 0.00 0.00 0.00 40 1011.2
20260509191911 81 135 2.0 8.0 0.00 0.00 0.00 39 1011.7
20260509191411 82 168 4.0 8.0 0.00 0.00 0.00 40 1011.7
20260509190912 83 189 2.0 8.0 0.00 0.00 0.00 39 1011.3
20260509190412 82 151 3.0 9.0 0.00 0.00 0.00 39 1011.2
20260509185912 82 183 4.0 10.0 0.00 0.00 0.00 39 1011.2
20260509185412 83 164 7.0 10.0 0.00 0.00 0.00 40 1011.3
20260509184911 83 151 3.0 8.0 0.00 0.00 0.00 40 1011.3
20260509184411 82 159 5.0 7.0 0.00 0.00 0.00 40 1011.5
20260509183911 82 184 4.0 8.0 0.00 0.00 0.00 41 1011.5
20260509183411 82 156 4.0 8.0 0.00 0.00 0.00 42 1011.5
20260509182912 81 186 2.0 8.0 0.00 0.00 0.00 41 1011.3
20260509182411 81 252 2.0 9.0 0.00 0.00 0.00 42 1011.5
20260509181911 82 327 3.0 9.0 0.00 0.00 0.00 43 1011.3
20260509181411 82 313 5.0 8.0 0.00 0.00 0.00 43 1011.5
20260509180911 82 189 3.0 6.0 0.00 0.00 0.00 45 1011.3
20260509180411 82 127 2.0 9.0 0.00 0.00 0.00 44 1011.3
20260509175919 81 155 5.0 10.0 0.00 0.00 0.00 45 1011.5
20260509175411 82 175 5.0 8.0 0.00 0.00 0.00 44 1011.5
20260509174911 81 197 2.0 8.0 0.00 0.00 0.00 45 1011.5
20260509174412 80 165 3.0 9.0 0.00 0.00 0.00 48 1011.5
20260509173911 81 155 6.0 9.0 0.00 0.00 0.00 48 1011.6
20260509173411 80 159 3.0 9.0 0.00 0.00 0.00 52 1011.7
20260509172913 79 156 4.0 9.0 0.00 0.00 0.00 52 1011.7
20260509172411 79 169 6.0 10.0 0.00 0.00 0.00 54 1011.8
20260509171911 79 162 9.0 11.0 0.00 0.00 0.00 54 1011.8
20260509171412 79 160 7.0 11.0 0.00 0.00 0.00 54 1011.7
20260509170911 79 152 7.0 10.0 0.00 0.00 0.00 56 1011.7
20260509170412 79 187 4.0 9.0 0.00 0.00 0.00 58 1011.8
20260509165915 79 198 4.0 11.0 0.00 0.00 0.00 55 1011.8
20260509165411 78 171 3.0 9.0 0.00 0.00 0.00 59 1011.9
20260509164911 77 161 6.0 11.0 0.00 0.00 0.00 60 1011.9
20260509164411 77 152 6.0 10.0 0.00 0.00 0.00 62 1012.0
20260509163912 77 153 7.0 9.0 0.00 0.00 0.00 62 1011.9
20260509163411 77 149 4.0 9.0 0.00 0.00 0.00 63 1012.0
20260509162911 76 197 4.0 7.0 0.00 0.00 0.00 61 1012.0
20260509162411 75 289 2.0 10.0 0.00 0.00 0.00 64 1012.0
20260509161912 74 162 8.0 10.0 0.00 0.00 0.00 65 1012.0
20260509161412 74 160 6.0 10.0 0.00 0.00 0.00 66 1012.0
20260509160913 73 157 7.0 11.0 0.00 0.00 0.00 68 1012.0
20260509160411 74 168 5.0 10.0 0.00 0.00 0.00 68 1012.0
20260509155911 73 155 6.0 9.0 0.00 0.00 0.00 68 1012.0
20260509155411 73 163 5.0 9.0 0.00 0.00 0.00 69 1012.0
20260509154911 73 151 6.0 9.0 0.00 0.00 0.00 69 1012.0
20260509154411 73 165 6.0 9.0 0.00 0.00 0.00 68 1012.0
20260509153911 72 150 6.0 9.0 0.00 0.00 0.00 70 1012.0
20260509153411 72 158 6.0 9.0 0.00 0.00 0.00 71 1011.9
20260509152912 73 162 8.0 9.0 0.00 0.00 0.00 69 1011.9
20260509152411 73 152 4.0 7.0 0.00 0.00 0.00 66 1011.8
20260509151913 72 167 3.0 7.0 0.00 0.00 0.00 69 1011.8
20260509151413 72 156 4.0 8.0 0.00 0.00 0.00 70 1011.8
20260509150911 73 196 4.0 8.0 0.00 0.00 0.00 68 1011.9
20260509150411 74 201 3.0 6.0 0.00 0.00 0.00 64 1011.8
20260509145912 73 0 0.0 8.0 0.00 0.00 0.00 66 1011.8
20260509145414 73 156 6.0 8.0 0.00 0.00 0.00 67 1011.8
20260509144412 74 148 0.0 5.0 0.00 0.00 0.00 63 1011.9
20260509143913 74 228 2.0 4.0 0.00 0.00 0.00 64 1011.9
20260509143412 73 115 0.0 4.0 0.00 0.00 0.00 62 1011.8
20260509142913 71 304 2.0 5.0 0.00 0.00 0.00 67 1011.8
20260509142412 70 221 3.0 4.0 0.00 0.00 0.00 71 1011.8
20260509141911 70 218 2.0 4.0 0.00 0.00 0.00 70 1011.7
20260509141411 69 289 2.0 5.0 0.00 0.00 0.00 71 1011.6
20260509140913 68 221 1.0 5.0 0.00 0.00 0.00 74 1011.7
20260509140413 68 293 2.0 4.0 0.00 0.00 0.00 74 1011.7
20260509135911 67 312 1.0 4.0 0.00 0.00 0.00 74 1011.6
20260509135412 66 152 2.0 6.0 0.00 0.00 0.00 77 1011.6
20260509134912 65 151 4.0 6.0 0.00 0.00 0.00 78 1011.6
20260509134414 65 131 2.0 6.0 0.00 0.00 0.00 78 1011.5
20260509133912 65 137 3.0 5.0 0.00 0.00 0.00 76 1011.5
20260509133412 65 149 2.0 4.0 0.00 0.00 0.00 74 1011.3
20260509132911 64 10 0.0 5.0 0.00 0.00 0.00 77 1011.2
20260509132412 63 147 2.0 4.0 0.00 0.00 0.00 78 1011.2
20260509131912 62 132 2.0 4.0 0.00 0.00 0.00 81 1011.2
20260509131411 61 155 2.0 4.0 0.00 0.00 0.00 81 1011.2
20260509130911 60 149 2.0 4.0 0.00 0.00 0.00 83 1011.2
20260509130414 59 174 3.0 5.0 0.00 0.00 0.00 85 1011.2
20260509125911 58 151 3.0 5.0 0.00 0.00 0.00 86 1011.2
20260509125412 57 134 2.0 3.0 0.00 0.00 0.00 87 1011.2
20260509124911 57 238 1.0 3.0 0.00 0.00 0.00 87 1011.2
20260509124411 56 161 2.0 4.0 0.00 0.00 0.00 88 1011.1
20260509123911 56 150 3.0 4.0 0.00 0.00 0.00 90 1011.1
20260509123412 56 144 3.0 4.0 0.00 0.00 0.00 89 1011.0
20260509122912 56 160 2.0 4.0 0.00 0.00 0.00 89 1011.0
20260509122411 56 173 2.0 3.0 0.00 0.00 0.00 88 1010.9
20260509121911 55 64 0.0 2.0 0.00 0.00 0.00 90 1010.8
20260509121411 54 157 1.0 2.0 0.00 0.00 0.00 91 1010.8
20260509120912 53 154 0.0 3.0 0.00 0.00 0.00 93 1010.8
20260509120411 53 0 0.0 0.0 0.00 0.00 0.00 92 1010.7
20260509115911 52 0 0.0 2.0 0.00 0.00 0.00 94 1010.7
20260509115412 51 0 0.0 1.0 0.00 0.00 0.00 97 1010.8
20260509114911 50 0 0.0 1.0 0.00 0.00 0.00 99 1010.7
20260509114412 50 0 0.0 0.0 0.00 0.00 0.00 100 1010.7
20260509113912 49 0 0.0 3.0 0.00 0.00 0.00 99 1010.7
20260509113411 49 153 2.0 3.0 0.00 0.00 0.00 100 1010.6
20260509112911 49 0 0.0 2.0 0.00 0.00 0.00 99 1010.5
20260509112411 49 350 1.0 2.0 0.00 0.00 0.00 99 1010.4
20260509111911 49 19 0.0 1.0 0.00 0.00 0.00 99 1010.3
20260509111411 49 316 0.0 2.0 0.00 0.00 0.00 99 1010.3
20260509110912 49 325 0.0 1.0 0.00 0.00 0.00 100 1010.3
20260509110412 49 156 1.0 1.0 0.00 0.00 0.00 99 1010.2
20260509105911 49 0 0.0 0.0 0.00 0.00 0.00 99 1010.2
20260509105411 49 0 0.0 0.0 0.00 0.00 0.00 99 1010.1
20260509104912 50 0 0.0 0.0 0.00 0.00 0.00 100 1010.2
20260509104411 50 0 0.0 1.0 0.00 0.00 0.00 100 1010.1
20260509103911 50 289 0.0 2.0 0.00 0.00 0.00 100 1010.0
20260509103411 50 338 1.0 1.0 0.00 0.00 0.00 99 1010.0
20260509102911 50 0 0.0 2.0 0.00 0.00 0.00 99 1010.1
20260509102412 50 0 0.0 1.0 0.00 0.00 0.00 99 1010.1
20260509101911 50 0 0.0 1.0 0.00 0.00 0.00 99 1010.1
20260509101412 50 345 0.0 2.0 0.00 0.00 0.00 99 1010.2
20260509100911 50 110 0.0 2.0 0.00 0.00 0.00 99 1010.2
20260509100411 50 209 0.0 1.0 0.00 0.00 0.00 99 1010.2
20260509095911 50 0 0.0 1.0 0.00 0.00 0.00 99 1010.2
20260509095411 51 3 0.0 1.0 0.00 0.00 0.00 99 1010.2
20260509094911 51 357 0.0 2.0 0.00 0.00 0.00 99 1010.3
20260509094413 50 350 0.0 2.0 0.00 0.00 0.00 99 1010.3
20260509093911 50 342 0.0 2.0 0.00 0.00 0.00 98 1010.3
20260509093411 51 349 2.0 2.0 0.00 0.00 0.00 98 1010.3
20260509092911 51 0 0.0 3.0 0.00 0.00 0.00 98 1010.4
20260509092411 51 146 2.0 3.0 0.00 0.00 0.00 98 1010.4
20260509091912 51 143 0.0 2.0 0.00 0.00 0.00 98 1010.5
20260509091412 51 0 0.0 0.0 0.00 0.00 0.00 97 1010.6
20260509090912 51 0 0.0 0.0 0.00 0.00 0.00 97 1010.5
20260509090412 51 0 0.0 2.0 0.00 0.00 0.00 97 1010.4
20260509085912 52 351 1.0 2.0 0.00 0.00 0.00 96 1010.4
20260509085412 52 0 0.0 0.0 0.00 0.00 0.00 96 1010.5
20260509084911 52 309 0.0 1.0 0.00 0.00 0.00 96 1010.7
20260509084411 51 186 0.0 1.0 0.00 0.00 0.00 98 1010.6
20260509083911 51 0 0.0 0.0 0.00 0.00 0.00 98 1010.7
20260509083411 51 346 0.0 2.0 0.00 0.00 0.00 97 1010.8
20260509082911 51 0 0.0 1.0 0.00 0.00 0.00 97 1010.8
20260509082412 51 0 0.0 0.0 0.00 0.00 0.00 97 1010.9
20260509081911 51 0 0.0 2.0 0.00 0.00 0.00 97 1010.8
20260509081411 51 345 1.0 2.0 0.00 0.00 0.00 96 1010.7
20260509080915 52 321 0.0 1.0 0.00 0.00 0.00 96 1010.7
20260509080411 52 340 0.0 1.0 0.00 0.00 0.00 96 1010.7
20260509075912 52 0 0.0 0.0 0.00 0.00 0.00 96 1010.7
20260509075412 52 0 0.0 2.0 0.00 0.00 0.00 95 1010.7
20260509074911 52 0 0.0 0.0 0.00 0.00 0.00 95 1010.8
20260509074411 53 0 0.0 0.0 0.00 0.00 0.00 94 1010.7
20260509073911 53 0 0.0 2.0 0.00 0.00 0.00 94 1010.6
20260509073411 53 1 2.0 2.0 0.00 0.00 0.00 94 1010.6
20260509072913 53 0 0.0 1.0 0.00 0.00 0.00 93 1010.6
20260509072411 53 0 0.0 1.0 0.00 0.00 0.00 94 1010.5
20260509071911 53 343 1.0 1.0 0.00 0.00 0.00 93 1010.5
20260509071411 53 345 1.0 2.0 0.00 0.00 0.00 93 1010.6
20260509070911 53 338 0.0 1.0 0.00 0.00 0.00 92 1010.6
20260509070411 53 0 0.0 1.0 0.00 0.00 0.00 92 1010.6
20260509065911 54 132 0.0 1.0 0.00 0.00 0.00 91 1010.6
20260509065411 54 0 0.0 0.0 0.00 0.00 0.00 91 1010.6
20260509064911 54 0 0.0 1.0 0.00 0.00 0.00 90 1010.5
20260509064412 54 0 0.0 0.0 0.00 0.00 0.00 90 1010.5
20260509063912 55 0 0.0 0.0 0.00 0.00 0.00 90 1010.7
20260509063411 55 0 0.0 0.0 0.00 0.00 0.00 89 1010.7
20260509062912 55 329 0.0 2.0 0.00 0.00 0.00 90 1010.7
20260509062411 55 0 0.0 2.0 0.00 0.00 0.00 89 1010.7
20260509061911 55 340 2.0 2.0 0.00 0.00 0.00 89 1010.7
20260509061411 55 330 0.0 2.0 0.00 0.00 0.00 88 1010.8
20260509060911 55 0 0.0 0.0 0.00 0.00 0.00 87 1010.8
20260509060411 56 0 0.0 2.0 0.00 0.00 0.00 86 1010.7
20260509055911 56 0 0.0 0.0 0.00 0.00 0.00 85 1010.7
20260509055411 56 0 0.0 0.0 0.00 0.00 0.00 84 1010.7
20260509054912 56 0 0.0 2.0 0.00 0.00 0.00 83 1010.7
20260509054412 56 337 1.0 2.0 0.00 0.00 0.00 83 1010.8
20260509053912 57 332 0.0 2.0 0.00 0.00 0.00 82 1010.8
20260509053411 57 336 1.0 2.0 0.00 0.00 0.00 82 1010.9
20260509052911 58 0 0.0 1.0 0.00 0.00 0.00 80 1011.0
20260509052411 58 286 0.0 4.0 0.00 0.00 0.00 80 1011.0
20260509051911 58 0 0.0 1.0 0.00 0.00 0.00 80 1011.1
20260509051414 59 0 0.0 2.0 0.00 0.00 0.00 78 1011.2
20260509050911 60 345 1.0 3.0 0.00 0.00 0.00 76 1011.1
20260509050411 60 315 0.0 2.0 0.00 0.00 0.00 75 1011.2
20260509045911 60 329 1.0 2.0 0.00 0.00 0.00 77 1011.2